Location: Madrid
(40.4000°N, 3.6830°W)
Time: 09:03:21
(UTC+01:00)

ISS - Pass Details

Date: 19 November 2017
Orbit: 402 x 407 km, 51.6° (Epoch: 21 November)

Event Time Altitude Azimuth Distance (km) Brightness Sun altitude
Exits shadow 06:14:18 25° 178° (S) 850 -2.2 -21.0°
Drops below altitude 10° 06:16:04 10° 156° (SSE) 1,445 -0.6 -20.7°
Sets 06:18:13 0° 147° (SSE) 2,299 0.6 -20.3°
